www.pogodaiklimat.ru

Погода и климат >> Архив погоды >> Португалия >> Порту


АРХИВ ПОГОДЫ в Порту

Время (UTC), дата Ветер
(напр.,м/с)
 
Видим.   Явления Облачность Т
(С)
Тd
(С)
f
(%)
Тe
(С)
Тes
(С)
Комфортность P
(гПа)
Po
(гПа)
Тmin
(С)
Tmax
(С)
R
(мм)
R24
(мм)
S
(см)
22 9.09 СЗ 4 н/о н/о +15.9 +13.8 87 +15 +15 по сезону 1020.7 1012.5
23 9.09 СЗ 4 н/о н/о +14.9 +13.6 92 +14 +14 прохладно 1020.9 1012.6
00 10.09 С 4 5000 м дымка 10/10 30 м
[St]
+14.5 +13.7 95 +13 +13 прохладно 1020.9 1012.7
01 10.09 С 3 н/о н/о +13.8 +13.0 95 +13 +13 прохладно 1020.6 1012.3
02 10.09 С 5 н/о н/о +13.8 +9.8 77 +12 +12 прохладно 1020.4 1012.1
03 10.09 С 5 н/о н/о +13.3 +8.4 72 +11 +11 холодно 1020.8 1012.5
04 10.09 С 4 н/о н/о +12.7 +8.2 74 +11 +11 прохладно 1020.9 1012.7
05 10.09 С 4 н/о н/о +12.4 +8.5 77 +10 +10 прохладно 1021.3 1012.9
06 10.09 С 3 н/о н/о +12.5 +8.1 75 +11 +11 прохладно 1022.0 1013.5 +11.9
07 10.09 С 3 н/о н/о +12.5 +8.5 77 +11 +11 очень
холодно
1022.6 1014.1
08 10.09 С 5 н/о н/о +15.4 +9.3 67 +14 +14 холодно 1023.1 1014.8
09 10.09 С 6 н/о н/о +17.6 +8.9 57 +17 +17 по сезону 1023.4 1015.3
10 10.09 СЗ 7 н/о н/о +18.2 +10.4 60 +18 +18 очень
холодно
1023.4 1015.2
11 10.09 С 8 н/о н/о +19.1 +10.1 56 +19 +19 холодно 1023.2 1015.1
13 10.09 СЗ 12 н/о н/о +19.3 +10.8 58 +19 +19 холодно 1022.8 1014.3
14 10.09 СЗ 11 н/о н/о +20.2 +10.7 54 +21 +21 комфорт 1022.2 1014.0
15 10.09 СЗ 10 н/о н/о +19.8 +9.4 51 +20 +21 по сезону 1021.7 1013.8
16 10.09 СЗ 10 н/о н/о +19.0 +10.0 56 +19 +19 прохладно 1021.6 1013.4
17 10.09 СЗ 8 н/о н/о +19.2 +9.4 53 +19 +19 прохладно 1021.4 1013.2
18 10.09 СЗ 9 н/о н/о +18.0 +9.1 56 +17 +17 прохладно 1021.6 1013.4 +20.9
19 10.09 С 7 н/о н/о +16.9 +9.4 61 +16 +16 прохладно 1022.0 1013.8
20 10.09 С 4 н/о н/о +15.3 +9.8 70 +14 +14 холодно 1023.0 1014.7
21 10.09 С 4 н/о н/о +15.7 +8.9 64 +15 +15 прохладно 1023.6 1015.3
22 10.09 С 5 н/о н/о +14.9 +8.7 66 +14 +14 по сезону 1023.7 1015.4
23 10.09 СЗ 2 н/о н/о +13.6 +8.8 73 +13 +13 прохладно 1024.0 1015.7
00 11.09 С 4 н/о н/о +14.6 +7.5 62 +13 +13 прохладно 1023.8 1015.6
01 11.09 С 2 н/о н/о +12.9 +7.3 69 +12 +12 прохладно 1024.2 1015.7
02 11.09 С 3 н/о н/о +11.8 +7.1 73 +10 +10 холодно 1023.9 1015.5
03 11.09 С 2 н/о н/о +12.2 +7.2 71 +11 +11 прохладно 1023.8 1015.4
04 11.09 С 1 н/о н/о +12.1 +7.1 71 +12 +12 по сезону 1024.0 1015.6
05 11.09 СЗ 1 н/о н/о +11.7 +7.3 74 +12 +12 прохладно 1023.9 1015.6
06 11.09 С 2 н/о н/о +12.2 +7.0 71 +11 +11 прохладно 1024.7 1016.2 +10.7
07 11.09 С 2 н/о н/о +12.9 +7.9 72 +12 +12 очень
холодно
1025.2 1016.8
08 11.09 В 2 н/о н/о +16.9 +7.8 55 +17 +17 прохладно 1025.5 1017.2
09 11.09 СВ 3 н/о н/о +19.5 +8.7 50 +21 +25 комфорт 1025.8 1017.5
10 11.09 С 3 н/о н/о +21.4 +8.6 44 +23 +23 комфорт 1025.8 1017.7
11 11.09 С 4 н/о н/о +24.1 +8.8 38 +25 +25 комфорт 1025.3 1017.2
12 11.09 З 4 30 км 3/0
[Ci sp]
+24.1 +10.5 42 +25 +34 комфорт 1024.6 1016.7
13 11.09 СЗ 5 н/о н/о +23.2 +11.7 48 +26 +26 жарко 1024.0 1016.0
14 11.09 СЗ 8 н/о н/о +25.0 +9.1 36 +26 +26 жарко 1023.1 1015.1
16 11.09 СЗ 9 н/о н/о +24.0 +9.0 38 +25 +25 комфорт 1022.2 1014.2
17 11.09 С 8 н/о н/о +22.9 +11.1 47 +25 +25 комфорт 1022.2 1014.1
18 11.09 С 7 н/о н/о +21.4 +11.4 53 +23 +23 комфорт 1022.1 1014.0 +25.7
19 11.09 СЗ 4 н/о н/о +20.1 +11.7 58 +22 +22 комфорт 1022.2 1014.1
20 11.09 С 3 н/о н/о +19.7 +12.0 61 +21 +21 комфорт 1022.8 1014.6
21 11.09 СВ 3 н/о н/о +22.5 +11.4 49 +25 +25 комфорт 1023.3 1015.2
22 11.09 В 3 н/о н/о +20.1 +12.1 60 +22 +22 комфорт 1024.0 1015.8
23 11.09 В 3 н/о н/о +19.1 +12.0 63 +20 +20 тепло 1024.5 1016.2
00 12.09 В 3 20 км 3/0
[Ci sp]
+20.4 +10.8 54 +22 +22 комфорт 1024.6 1016.5
01 12.09 СВ 4 н/о н/о +19.6 +8.6 49 +21 +21 комфорт 1024.5 1016.4
02 12.09 СВ 4 н/о н/о +20.4 +7.3 43 +22 +22 комфорт 1024.2 1016.1
03 12.09 В 4 н/о н/о +19.5 +7.4 45 +20 +20 тепло 1024.1 1015.9
04 12.09 В 6 н/о н/о +20.3 +7.9 45 +21 +21 комфорт 1024.0 1015.9
05 12.09 В 7 н/о н/о +20.4 +7.8 44 +21 +21 комфорт 1024.4 1016.3
06 12.09 В 6 н/о н/о +20.6 +8.0 44 +22 +22 комфорт 1024.9 1016.8 +18.5
07 12.09 В 6 н/о н/о +20.5 +8.2 45 +22 +22 комфорт 1025.9 1017.6
08 12.09 В 8 н/о н/о +22.0 +8.1 41 +23 +23 комфорт 1025.9 1017.8
09 12.09 В 8 н/о н/о +23.7 +8.7 38 +24 +25 комфорт 1026.4 1018.2
10 12.09 В 7 н/о н/о +25.9 +8.8 34 +26 +26 жарко 1026.7 1018.6
11 12.09 В 5 н/о н/о +28.0 +8.6 30 +28 +28 жарко 1026.4 1018.5
12 12.09 В 3 н/о н/о +30.1 +9.1 27 +30 +30 жарко 1026.0 1018.1
13 12.09 З 5 н/о н/о +28.2 +10.0 32 +28 +28 жарко 1025.5 1017.7
14 12.09 СЗ 7 н/о н/о +28.5 +9.4 30 +28 +28 жарко 1024.9 1017.0
15 12.09 СЗ 6 н/о н/о +27.8 +8.6 30 +28 +31 жарко 1024.2 1016.4
16 12.09 СЗ 5 н/о н/о +27.9 +9.6 32 +28 +28 жарко 1023.7 1015.9
17 12.09 С 6 н/о н/о +26.6 +8.0 31 +27 +27 жарко 1023.5 1015.6
18 12.09 С 6 н/о н/о +24.8 +7.6 33 +25 +25 комфорт 1023.5 1015.5 +30.4
19 12.09 С 5 н/о н/о +23.1 +7.5 37 +24 +24 комфорт 1023.9 1015.7
20 12.09 СЗ 3 н/о н/о +20.5 +8.8 47 +22 +22 комфорт 1023.9 1015.7
21 12.09 С 2 н/о н/о +19.5 +9.4 52 +21 +21 комфорт 1024.0 1015.8
22 12.09 В 2 н/о н/о +22.9 +9.5 43 +25 +25 комфорт 1023.6 1015.5
23 12.09 В 2 н/о н/о +20.7 +10.0 50 +23 +23 комфорт 1023.8 1015.7
00 13.09 В 3 н/о н/о +21.9 +11.1 50 +24 +24 комфорт 1023.3 1015.2
01 13.09 СВ 2 н/о н/о +20.7 +11.8 57 +23 +23 комфорт 1023.2 1015.1
02 13.09 В 5 н/о н/о +22.3 +11.0 49 +24 +24 комфорт 1023.0 1014.9
03 13.09 В 4 н/о н/о +20.0 +11.4 58 +22 +22 комфорт 1023.4 1015.2
04 13.09 В 3 н/о н/о +20.7 +10.5 52 +23 +23 комфорт 1023.3 1015.3
05 13.09 В 4 н/о н/о +21.6 +9.7 47 +23 +23 комфорт 1023.2 1015.1
06 13.09 В 4 н/о н/о +21.4 +9.0 45 +23 +23 комфорт 1023.1 1015.0 +19.2
07 13.09 В 5 н/о н/о +22.3 +9.6 44 +24 +24 комфорт 1023.6 1015.5
08 13.09 В 4 н/о н/о +24.5 +10.1 40 +25 +25 комфорт 1023.4 1015.4
09 13.09 В 4 н/о н/о +27.2 +10.2 34 +28 +31 жарко 1023.4 1015.4
10 13.09 В 4 н/о н/о +28.9 +10.3 31 +29 +29 жарко 1022.8 1014.9
11 13.09 В 3 н/о н/о +30.8 +11.6 31 +31 +31 жарко 1022.3 1014.4
12 13.09 СВ 4 н/о н/о +32.3 +10.5 26 +32 +32 жарко 1021.5 1013.7
13 13.09 СЗ 5 н/о н/о +30.7 +11.3 30 +31 +31 жарко 1020.7 1013.0
14 13.09 СЗ 6 н/о н/о +31.2 +10.9 29 +31 +31 жарко 1019.9 1012.3
15 13.09 СЗ 9 н/о н/о +29.5 +9.5 29 +29 +30 жарко 1019.4 1011.5
16 13.09 СЗ 7 н/о н/о +28.6 +10.3 32 +29 +29 жарко 1019.1 1011.3
17 13.09 СЗ 6 н/о н/о +24.9 +13.1 48 +27 +27 жарко 1019.0 1011.0
18 13.09 СЗ 6 н/о н/о +22.2 +12.8 55 +25 +25 комфорт 1018.8 1010.7 +33.3
19 13.09 С 3 н/о н/о +21.9 +12.5 55 +24 +24 комфорт 1018.8 1010.7
20 13.09 В 3 н/о н/о +23.8 +13.3 52 +26 +26 жарко 1019.3 1011.3
21 13.09 В 4 н/о н/о +27.3 +9.7 33 +28 +28 жарко 1020.1 1012.1
22 13.09 В 5 н/о н/о +28.0 +7.0 26 +27 +27 жарко 1020.6 1012.6
23 13.09 В 5 н/о н/о +27.3 +8.1 30 +27 +27 жарко 1020.7 1012.8
00 14.09 В 5 20 км 6/0
[Ac trans Ci sp]
+26.1 +9.1 34 +26 +26 жарко 1021.1 1013.1
01 14.09 В 6 н/о н/о +25.0 +10.0 39 +26 +26 жарко 1021.1 1013.2
02 14.09 ЮВ 5 н/о н/о +24.1 +10.5 42 +25 +25 комфорт 1021.0 1012.9
03 14.09 ЮВ 5 н/о н/о +24.2 +10.9 43 +25 +25 комфорт 1020.5 1012.5
04 14.09 ЮВ 4 н/о н/о +23.8 +11.3 45 +25 +25 комфорт 1020.4 1012.4
05 14.09 ЮВ 3 н/о н/о +23.1 +11.6 48 +25 +25 комфорт 1020.7 1012.7
06 14.09 ЮВ 2 н/о н/о +22.8 +11.8 50 +25 +25 комфорт 1021.3 1013.2 +21.5
07 14.09 ЮВ 2 н/о н/о +20.7 +12.2 58 +24 +24 комфорт 1021.7 1013.6
08 14.09 ЮВ 3 н/о н/о +24.3 +12.6 48 +26 +26 жарко 1021.8 1013.8
09 14.09 ЮВ 4 н/о н/о +25.8 +12.1 42 +27 +27 жарко 1021.8 1013.9
10 14.09 СВ 4 н/о н/о +27.2 +12.5 40 +29 +29 жарко 1021.2 1013.3
11 14.09 СВ 4 н/о н/о +28.4 +12.0 36 +29 +29 жарко 1020.9 1013.0
12 14.09 В 3 20 км 3/0
[Ac cast]
+28.3 +11.6 35 +29 +29 жарко 1020.4 1012.6
13 14.09 С 4 н/о н/о +28.8 +12.0 35 +30 +30 жарко 1019.9 1012.1
14 14.09 СЗ 5 н/о н/о +26.8 +11.6 39 +28 +28 жарко 1019.3 1011.4
15 14.09 СЗ 5 н/о н/о +29.0 +11.6 34 +30 +30 жарко 1018.5 1010.7
16 14.09 СЗ 7 н/о н/о +28.6 +10.7 33 +29 +29 жарко 1017.9 1010.1
17 14.09 СЗ 6 н/о н/о +27.2 +11.1 37 +28 +28 жарко 1018.2 1010.3
18 14.09 С 5 н/о н/о +24.0 +13.3 51 +26 +26 жарко 1018.3 1010.3 +31.1
19 14.09 С 3 н/о н/о +22.5 +12.5 53 +25 +25 комфорт 1018.5 1010.5
20 14.09 СЗ 4 н/о н/о +22.8 +13.0 54 +26 +26 жарко 1018.5 1010.5
21 14.09 В 2 н/о н/о +22.3 +13.4 57 +25 +25 комфорт 1018.9 1010.8
22 14.09 ЮВ 1 н/о н/о +18.7 +13.8 73 +21 +21 комфорт 1019.2 1011.0
23 14.09 ЮВ 1 н/о н/о +18.9 +13.8 72 +21 +21 комфорт 1019.3 1011.2
00 15.09 ЮВ 1 15 км 9/0
[Ac trans]
+18.2 +13.9 76 +20 +20 тепло 1019.0 1010.9
01 15.09 ЮВ 3 н/о н/о +21.0 +14.3 66 +24 +24 комфорт 1018.9 1010.9
02 15.09 В 3 н/о н/о +20.9 +13.9 64 +24 +24 комфорт 1018.5 1010.4
03 15.09 В 3 н/о н/о +20.4 +13.2 63 +23 +23 комфорт 1018.5 1010.4
04 15.09 СЗ 1 н/о н/о +17.5 +13.9 79 +19 +19 тепло 1018.6 1010.4
05 15.09 С 2 н/о н/о +17.4 +14.1 81 +18 +18 тепло 1019.1 1010.8
06 15.09 В 2 н/о н/о +18.5 +14.2 76 +20 +20 тепло 1019.0 1010.8 +17.2
07 15.09 В 2 н/о н/о +18.6 +14.3 76 +20 +20 по сезону 1019.5 1011.3
08 15.09 В 3 н/о н/о +23.0 +12.7 52 +26 +26 жарко 1019.5 1011.5
09 15.09 В 3 н/о н/о +25.2 +12.6 45 +27 +27 жарко 1019.7 1011.7
10 15.09 СВ 3 н/о н/о +25.6 +12.3 44 +27 +27 жарко 1019.8 1011.7
11 15.09 С 2 н/о н/о +26.6 +13.1 43 +28 +28 жарко 1019.0 1011.1
12 15.09 СВ 2 30 км 4/1 750 м
[Cu Sc Ac trans]
+28.2 +11.7 36 +29 +38 жарко 1018.6 1010.8
13 15.09 З 4 н/о н/о +26.9 +13.2 43 +29 +29 жарко 1018.5 1010.6
14 15.09 СЗ 7 н/о н/о +25.9 +13.1 45 +28 +28 жарко 1018.2 1010.4
15 15.09 СЗ 7 н/о н/о +26.3 +12.2 42 +28 +29 жарко 1017.7 1009.9
16 15.09 СЗ 6 н/о н/о +26.0 +11.8 41 +27 +27 жарко 1017.4 1009.6
17 15.09 СЗ 5 н/о н/о +25.1 +11.4 42 +26 +26 жарко 1017.5 1009.5
18 15.09 З 2 н/о н/о +22.4 +12.5 53 +25 +25 комфорт 1017.6 1009.7 +28.7
19 15.09 З 1 н/о н/о +20.4 +13.3 64 +24 +24 комфорт 1017.9 1009.8
20 15.09 З 2 н/о н/о +19.9 +13.5 67 +22 +22 комфорт 1018.3 1010.2
21 15.09 З 2 н/о н/о +18.3 +13.7 75 +19 +19 тепло 1018.4 1010.2
22 15.09 З 1 н/о н/о +18.3 +13.5 74 +20 +20 тепло 1018.6 1010.4
23 15.09 штиль 0 н/о н/о +18.2 +13.6 75 +18 +18 тепло 1018.5 1010.3
00 16.09 З 2 15 км 3/0
[Ac trans Ci sp]
+18.3 +13.3 73 +19 +19 тепло 1018.3 1010.2
01 16.09 З 1 н/о н/о +18.0 +12.9 72 +19 +19 тепло 1018.2 1010.0
02 16.09 З 1 н/о н/о +18.0 +13.2 74 +19 +19 тепло 1017.8 1009.7
03 16.09 З 2 н/о н/о +18.1 +12.9 72 +19 +19 тепло 1017.5 1009.3
04 16.09 З 2 н/о н/о +16.9 +13.3 79 +17 +17 тепло 1017.4 1009.2
05 16.09 З 1 н/о н/о +17.2 +13.7 80 +18 +18 тепло 1017.5 1009.3
06 16.09 З 2 н/о н/о +17.3 +13.7 79 +18 +18 тепло 1017.6 1009.4 +16.4
07 16.09 З 2 н/о н/о +18.4 +14.0 76 +19 +19 по сезону 1018.1 1009.8
08 16.09 З 3 н/о н/о +20.1 +14.5 70 +23 +23 комфорт 1018.2 1010.1
09 16.09 З 3 н/о н/о +23.6 +14.4 56 +26 +27 жарко 1018.6 1010.5
10 16.09 З 3 н/о н/о +21.8 +13.8 60 +25 +25 комфорт 1018.8 1010.7
11 16.09 З 4 н/о н/о +19.4 +15.5 78 +21 +21 комфорт 1019.0 1010.8
12 16.09 З 2 12 км в посл. час ливневой дождь 10/5 600 м
[Cu Sc Ac trans]
+18.2 +15.9 86 +19 +22 прохладно 1018.9 1010.8 0.2
13 16.09 З 1 н/о н/о +20.0 +15.9 77 +24 +24 комфорт 1018.5 1010.4
14 16.09 З 3 н/о н/о +21.3 +16.1 72 +25 +25 комфорт 1018.3 1010.3
15 16.09 З 2 н/о н/о +21.2 +15.9 72 +25 +27 комфорт 1017.7 1009.7
16 16.09 З 2 н/о н/о +19.7 +15.3 76 +22 +22 комфорт 1017.3 1009.3
17 16.09 З 2 н/о н/о +21.2 +13.7 62 +24 +24 комфорт 1016.9 1008.8
18 16.09 З 2 н/о н/о +19.2 +15.2 78 +21 +21 комфорт 1017.0 1008.8 +24.2 0.2
19 16.09 штиль 0 н/о н/о +17.5 +15.2 86 +17 +17 по сезону 1017.3 1009.0
20 16.09 З 1 н/о н/о +17.1 +14.9 87 +18 +18 по сезону 1017.4 1009.1
21 16.09 З 1 н/о н/о +16.5 +14.7 89 +17 +17 по сезону 1017.9 1009.7 0.2

 

Местоположение метеостанции Порту (Португалия): широта 41.23 долгота -8.68 высота над уровнем моря 77 м.

В архиве по умолчанию представлена погода в Порту за последнюю неделю. Архивные данные за месяц целиком и за предыдущие месяцы, начиная с января 2011 года, Вы можете получить, выбрав интересующий диапазон дат из раскрывающегося списка и нажав кнопку "Ввод!".


*Определитесь, кто Вы:
робот инопланетянин человек

Внимание! Время в таблицах - всемирное. Для получения местного времени необходимо прибавить поправку, которая равна 0 ч.

Смотрите также архив погоды в соседних городах и на ближайших метеорологических станциях:

Погода в Оваре (Португалия) (35 км)
Погода в Виана-ду-Каштелу (Португалия) (46 км)
Погода в Вила-Реале (Португалия) (80 км)
Погода в Визеу (Португалия) (88 км)
Погода в Виго (Испания) (111 км)
Погода в Коимбре (Португалия) (121 км)
Погода в Хинсо-де-Лимии (Испания) (123 км)
Погода в Обсерватории Penhas Douradas (Португалия) (131 км)
Погода в Понтеведре (Испания) (134 км)
Погода в Оренсе (Испания) (140 км)

Пояснения к столбцам:

Ветер - указаны скорость ветра в м/с - средняя за 10 мин, порывы в срок и между сроками (в фигурных скобках) и направление, откуда дует ветер: С - северный, СВ - северо-восточный, В - восточный, ЮВ - юго-восточный, Ю - южный, ЮЗ - юго-западный, З - западный, СЗ - северо-западный.
Видимость - горизонтальная дальность видимости в метрах или километрах. При видимости от 1 до 10 км при отсутствии осадков обычно наблюдается дымка, при ухудшении видимости до 1 км и менее - туман. В сухую погоду видимость может ухудшаться дымом, пылью или мглою.
Явления - указаны атмосферные явления, наблюдавшиеся в срок или в последний час перед сроком; фигурными скобками обозначены явления, наблюдавшиеся между сроками (за 1-3 часа до срока); квадратными скобками обозначены град или гололедные отложения с указанием их диаметра в мм.
Облачность - указаны через наклонную черту общая и нижняя облачность в баллах и высота нижней границы облаков в метрах; квадратными скобками обозначены формы облаков: Ci - перистые, Cs - перисто-слоистые, Cc - перисто-кучевые, Ac - высококучевые, As - высокослоистые, Sc - слоисто-кучевые, Ns - слоисто-дождевые, Cu - кучевые, Cb - кучево-дождевые. Подробнее классификацию облаков см. в Атласе облаков (PDF).
T - Температура воздуха - температура, измеренная на высоте 2 м над землей.
Td - Температура точки росы - температура, при понижении до которой содержащийся в воздухе водяной пар достигнет насыщения.
f - Относительная влажность воздуха - влажноcть воздуха, измеренная на высоте 2 м над землей.
Te - Эффективная температура - температура, которую ощущает одетый по сезону человек в тени. Характеристика душности погоды. При расчете учитывается влияние влажности воздуха и скорости ветра на теплоощущения человека.
Tes - Эффективная температура на солнце - температура, которую ощущает человек, с поправкой на солнечный нагрев. Характеристика знойности погоды. Зависит от высоты солнца над горизонтом, облачности и скорости ветра. Ночью, в пасмурную погоду, а также при ветре 12 м/с и более поправка равна нулю.
P - Атмосферное давление - приведенное к уровню моря атмосферное давление.
Po - Атмосферное давление - измеренное на уровне метеостанции атмосферное давление.
Tmin - Минимальная температура - минимум температуры воздуха на высоте 2 м над землей.
Tmax - Максимальная температура - максимум температуры воздуха на высоте 2 м над землей.
R - Количество осадков - Количество выпавших осадков за период времени, мм. При наведении курсора мыши на число - период времени, за который выпало указанное количество осадков.
R24 - Количество осадков - Количество выпавших осадков за 24 часа, мм.
S - Снежный покров - Высота снежного покрова, см. При наведении курсора мыши на число - состояние снежного покрова и степень покрытия местности в баллах.